Location: ??????
(55.2000°N, 38.3000°E)
Time: 01:13:15
(UTC+00:00)

ADEOS II - Pass Details

Date: 15 November 2025
Orbit: 794 x 794 km, 98.8° (Epoch: 12 December)

Event Time Altitude Azimuth Distance (km) Brightness Sun altitude
Rises 01:55:11 0° 12° (NNE) 3,313 5.5 -25.9°
Reaches altitude 10° 01:57:46 10° 2° (N) 2,379 4.6 -25.6°
Enters shadow 01:59:49 21° 345° (NNW) 1,751 3.7 -25.3°
